Regional Weather Roundup
Issued by NWS Northern Indiana

Home | Current Version | Previous Version | Text Only | Print | Product List | Glossary Off
Versions: 1 2 3 4 5 6 7 8 9 10 11 12 13 14 15 16 17 18 19 20 21 22 23 24 25 26 27 28 29 30 31 32 33 34 35 36 37 38 39 40 41 42 43 44 45 46 47 48 49 50

000
ASUS43 KIWX 291910
RWRIWX

KIWX WEATHER ROUNDUP
NATIONAL WEATHER SERVICE NORTHERN INDIANA
300 PM EDT FRI JUL 29 2016

NOTE: "FAIR" INDICATES FEW OR NO CLOUDS BELOW 12,000 FEET WITH NO
SIGNIFICANT WEATHER AND/OR OBSTRUCTIONS TO VISIBILITY.

* THESE STATIONS ARE NOT UNDER NWS QUALITY CONTROL. THEY ALSO MAY NOT
  REPORT WEATHER SUCH AS PRECIPITATION OR FOG.

INZ001>027-292000-
NORTHERN INDIANA

CITY           SKY/WX    TMP DP  RH WIND       PRES   REMARKS
GARY*          TSTM      75  75 100 NW5       29.93S
VALPARAISO     CLOUDY    83  69  62 SE8       29.89F THUNDER
MICHIGAN CITY* RAIN      68  64  88 MISG      29.92F
LAPORTE*       CLOUDY    78  67  66 N13G23    29.91F
KNOX*          CLOUDY    77  66  69 CALM      29.90F
SOUTH BEND     MOSUNNY   80  69  69 E7        29.92F
ELKHART*       MOSUNNY   81  66  61 E12G20    29.92F
GOSHEN         MOSUNNY   81  65  58 NE9       29.92F
MONTICELLO*    MOSUNNY   81  69  65 SW6       29.89F
LOGANSPORT*    CLOUDY    81  70  69 W3        29.90F
ROCHESTER*     PTSUNNY   82  70  65 E3        29.91S
WARSAW*        CLOUDY    81  72  74 NE6       29.91F
ANGOLA*          N/A     79  68  69 NE7       29.94F
FORT WAYNE     CLOUDY    88  66  48 VRB5      29.90F
HUNTINGTON*    PTSUNNY   82  71  68 NE8       29.90F
PERU/GRISSOM   CLOUDY    84  70  62 E5        29.89F
MARION*        PTSUNNY   85  66  54 SW5       29.91F

$$
INZ028>050-292000-
CENTRAL INDIANA

CITY           SKY/WX    TMP DP  RH WIND       PRES   REMARKS
LAFAYETTE      CLOUDY    84  75  74 W10       29.88F
KOKOMO*        PTSUNNY   75  66  73 E10       29.90F
MUNCIE*        LGT RAIN  81  71  71 W9        29.91F
INDIANAPOLIS   MOSUNNY   87  71  58 SW9       29.90F

$$
MIZ043>046-050>051-056>058-064>065-071>073-077>080-292000-
SOUTHWEST LOWER MICHIGAN

CITY           SKY/WX    TMP DP  RH WIND       PRES   REMARKS
BATTLE CREEK   PTSUNNY   77  68  73 NE10      29.97F
BENTON HARBOR  MOSUNNY   84  67  56 VRB6      29.92F
COLDWATER*     PTSUNNY   72  71  96 NE10      29.95F
HILLSDALE*     LGT RAIN  71  68  92 N5        29.96F
HOLLAND        CLOUDY    78  64  61 E12       29.97F
GRAND RAPIDS   CLOUDY    73  63  70 NE17      29.99F
KALAMAZOO      MOSUNNY   79  67  66 NE8       29.96F
STURGIS*       MOSUNNY   79  69  71 E13       29.93F
THREE RIVERS*  FAIR      79  64  59 NE10      29.95F

$$
OHZ001>008-015>018-024>025-292000-
NORTHWEST OHIO

CITY           SKY/WX    TMP DP  RH WIND       PRES   REMARKS
DEFIANCE       RAIN      79  71  76 CALM      29.93R
FINDLAY        MOSUNNY   87  63  44 CALM      29.90F
TOLEDO EXPRESS PTSUNNY   85  68  56 VRB5      29.91F
TOLEDO METCALF MOSUNNY   87  67  51 E8        29.92F
LIMA           RAIN      75  72  90 SE10      29.93R FOG

$$
AND FOR LAKE MICHIGAN COASTAL AND OPEN LAKE BUOY OBSERVATIONS

STATION/POSITION TEMP    WIND        PRES    VSBY  WAVE
                 AIR SEA DIR/SP/G                  HT/PER
                 (F)     (DEG/KT/KT) (MB)    (MI)  (FT/S)
CALUMET HARBOR    74     360/ 10/ 11 1012.9F
MICHIGAN CITY     76     360/ 12/ 13   N/A
BURNS HARBOR      76      50/  9/ 12 1013.2F
SAINT JOSEPH      81     340/  1/  6 1013.2F
SOUTH LAKE BUOY   72 74   70/ 14/ 16 1013.5F         3/ 4
4 MI NW BRIDGMAN  77 77   40/  6/ 10 1012.5F         2
MICHIGAN CITY     76 77   40/ 12/ 16   N/A           2/ 5

$$
&&



USA.gov is the U.S. government's official web portal to all federal, state and local government web resources and services.